sat.trackr.live / text

‹ back to catalog

UNKNOWN

NORAD 81816

UNKNOWN UNKNOWN UNKNOWN

§ Identity

Operator
Country
Launch date
Launch site
Launch vehicle
Mass (kg)
RCS (m²)

External: N2YO · Heavens-Above

§ Orbital elements

Epoch: 2026-09-17T10:26:33.999072Z

Period
103.59 min
Inclination
66.2387°
Eccentricity
0.0163219
Mean motion
13.90136800 rev/d
Perigee alt
808.9 km
Apogee alt
1,047.4 km
Semi-major
7,306.3 km
B*
6.1365e-4
RAAN
320.8987°
Arg perigee
84.2778°
Mean anomaly
277.6880°
Rev number
64,807

§ Raw data

UNKNOWN1 81816U          26260.43511573  .00000765  00000+0  61365-3 0  99902 81816  66.2387 320.8987 0163219  84.2778 277.6880 13.90136800648077

JSON: /api/v1/satellites/81816 · /tle

For live sub-satellite position, see the globe view (requires WebGL).

§ Visibility from observer

Set your observer location to see the next 7 days of passes ≥ 10°. The values pass through the URL so the page stays shareable.

No JS? Fill the form by hand. The geolocation button needs JavaScript.